Find Starlink 31778

NORAD ID: 59602 Int'l Des: 2024-080 Owner: SPXS Country: US Constellation: starlink operational
LEOCIRCULAR

現在のビュー

3D地球を読み込み中...

About Starlink 31778

Starlink 31778 (NORAD 59602) is a starlink constellation satellite (v2 mini) launched Apr 28, 2024 by SPXS of US. It operates in LEO, CIRCULAR orbit with a mass of 730.00 kg.

Starlink 31778について

説明を読み込み中...

次回通過

Passes for default location (London). Set your location on the main map for personalized predictions.

高度履歴

Loading altitude history...

軌道要素

1 59602U 24080B 26193.01910903 .00002048 00000-0 83915-4 0 9994
2 59602 43.0032 52.6107 0001410 284.5856 75.4839 15.27584953123585
Epoch: Jul 12, 2026 • Age: 20 hours

現在のステータス

高度 488.3 km
遠地点 / 近地点 N/A
速度 7.62 km/s
衛星直下点 -24.72°S, 137.27°E
打ち上げ日 Apr 28, 2024
運用期間 2.2 years
タイプ internet

技術仕様

分類 Payload
質量 730.00 kg
乾燥質量 700.00 kg
総質量 730.00 kg
長さ 0.30 m
直径 4.10 m
スパン 29.00 m
形状 Box + pan
製造者 SPXS
バスタイプ Starlink V2M
フェーズステータス In Orbit
所有者/国 SPXS/US

Most Searched